Location: WWIN Observatory
(34.8953°N, 91.9583°W)
Time: 16:28:40
(UTC-06:00)

Daily predictions for brighter satellites

Satellite Brightness Start Highest point End
(mag) Time Altitude Azimuth Time Altitude Azimuth Time Altitude Azimuth
Cosmos 1898 Rocket 4.4 17:19:17 10° NNW 17:24:21 56° WSW 17:29:27 10° S
H-2A R/B 2.4 17:19:17 10° SSE 17:23:41 52° ENE 17:28:05 10° N
Cosmos 1980 4.0 17:19:31 10° NNW 17:25:11 75° WSW 17:30:49 10° SSE
deb Chang Zheng 4 3.9 17:19:38 10° NNE 17:24:01 52° E 17:28:25 10° S
Cosmos 1758 Rocket 3.8 17:19:39 10° S 17:23:57 75° W 17:28:16 10° N
AQUARIUS 4.3 17:21:21 10° SSE 17:25:42 52° ENE 17:30:05 10° N
Cosmos 1125 Rocket 4.1 17:22:15 10° N 17:27:04 34° ENE 17:31:51 10° SE
Cosmos 1666 2.9 17:24:14 10° N 17:28:06 51° E 17:31:57 10° SSE
SL-16 R/B 2.4 17:25:11 10° N 17:30:40 50° ENE 17:36:07 10° SE
Cosmos 1271 Rocket 3.5 17:25:59 10° SSE 17:29:31 33° E 17:33:02 10° NNE
Resurs 01 Rocket 1.8 17:29:26 10° SSE 17:33:42 49° ENE 17:37:57 10° N
Cosmos 921 Rocket 3.3 17:30:18 10° NNW 17:34:44 76° WSW 17:39:13 10° S
CZ-2C R/B 4.2 17:42:30 10° NE 17:42:30 10° NE 17:42:38 10° NE
Cosmos 841 Rocket 3.8 17:42:14 10° SSW 17:47:19 70° WNW 17:52:29 10° NNE
Aureole 3 3.8 17:43:04 10° SSW 17:45:55 46° W 17:49:04 10° N
NOSS 3-1 (C) 4.0 17:43:36 10° NNW 17:51:17 82° ENE 17:59:28 10° SSE
ADEOS II 3.5 17:45:54 10° S 17:50:51 43° W 17:55:51 10° NNW
Cosmos 1842 Rocket 3.9 17:47:54 10° N 17:52:11 45° E 17:56:28 10° SSE
Cosmos 1821 Rocket 4.4 17:54:21 10° SSE 17:59:55 39° E 18:05:33 10° NNE
Cosmos 2333 Rocket 3.2 17:55:07 10° NNW 18:00:34 51° WSW 18:06:00 10° S
CORIOLIS 4.5 17:55:15 10° S 18:00:33 71° WSW 18:05:54 10° NNW
Cosmos 1340 Rocket 2.8 17:57:03 10° N 18:01:02 87° W 18:05:01 10° S
CZ-4B DEB 4.0 17:57:21 10° SE 18:00:34 29° ENE 18:03:48 10° NNE
SJ-12 4.3 17:59:42 10° SE 18:03:39 43° ENE 18:07:36 10° N
MOZ.5/SAFIR/RUBIN 5/SL-8 3.7 17:59:59 10° NNE 18:04:39 81° ESE 18:09:16 10° S
HJ-1C 3.3 18:05:01 10° SSE 18:08:01 50° ENE 18:11:01 10° N
Cosmos 1000 Rocket 4.5 18:06:11 10° N 18:12:23 63° E 18:18:29 10° SSE
CZ-4 DEB 3.3 18:06:22 10° S 18:10:02 76° WSW 18:13:45 10° NNW
SJ-6B 3.9 18:07:13 10° S 18:10:56 48° W 18:14:45 10° NNW
ATLAS 2AS CENTAUR R/B 3.0 18:08:36 10° NNW 18:16:45 86° ENE 18:24:29 10° SSE
Cosmos-2242 3.7 18:08:51 10° NNW 18:13:10 58° W 18:17:25 10° S
Cosmos 1066 Rocket 4.0 18:10:36 10° S 18:15:58 78° E 18:21:30 10° N
Meteor 1-22 Rocket 4.1 18:11:06 10° N 18:16:23 59° E 18:21:48 10° SSE
FALCON 9 R/B 3.0 18:11:54 10° W 18:16:32 86° S 18:30:24 14° E
COSMO-SKYMED 1 2.5 18:14:35 10° NNE 18:18:56 89° WNW 18:23:16 10° SSW
USA 234 3.9 18:18:18 22° E 18:21:33 34° NE 18:27:17 10° NNW
Lacrosse 4 Rocket 1.5 18:16:28 10° NNW 18:20:54 83° WSW 18:25:09 10° SSE
Meteor 1-21 4.2 18:17:57 10° S 18:23:32 67° E 18:29:14 10° NNE
Cosmos 1603 3.6 18:19:10 10° NNW 18:24:44 62° ENE 18:30:14 10° SSE
GPS 2-04 Rocket1 2.5 18:21:21 10° WSW 18:24:50 64° SSE 18:25:45 43° ESE
CZ-4B R/B 3.7 18:28:53 33° ENE 18:30:07 39° E 18:34:33 10° S
ATLAS CENTAUR R/B 3.1 18:30:52 10° SSE 18:32:05 16° SE 18:32:05 16° SE
Tiangong 1 3.1 18:33:24 10° NW 18:35:14 18° NNW 18:35:14 18° NNW
CZ-2C R/B 2.9 18:42:17 10° SSW 18:45:19 37° W 18:48:23 10° NNW
Cosmos 2123 Rocket 3.8 18:46:52 10° N 18:53:04 71° E 18:59:18 10° SSE
Cosmos 540 Rocket 3.7 18:48:09 10° SSW 18:53:12 67° WNW 18:56:13 25° N
Cosmos 923 Rocket 3.9 18:55:31 10° S 19:00:48 70° ESE 19:01:16 66° ENE
ATLAS 5 CENTAUR R/B 2.0 18:58:26 10° SSW 19:03:04 61° SE 19:03:04 61° SE
Hubble Space Telescope 2.3 19:00:57 10° WSW 19:04:30 27° S 19:04:48 27° S
Cosmos 1605 Rocket 3.9 19:01:14 10° S 19:07:24 82° W 19:12:17 17° N
PAYLOAD A 4.3 19:02:35 10° S 19:07:15 60° W 19:12:06 10° NNW
Aureole 2 Rocket 3.6 19:04:07 10° NNW 19:08:11 57° N 19:08:11 57° N
Cosmos 1766 4.2 19:06:05 10° NNW 19:09:59 48° W 19:13:51 10° SSW
Meteor 1-4 Rocket 3.8 19:06:18 10° SSW 19:09:29 40° W 19:09:29 40° W
CZ-2C R/B 2.9 19:14:36 10° S 19:21:53 27° NNW 19:24:04 10° NNW
NOSS 3-3 (A) 4.4 19:18:52 10° SW 19:25:06 58° NW 19:27:03 43° N
NOSS 3-3 (C) 4.4 19:18:58 10° SW 19:25:12 59° NW 19:27:07 43° N
BREEZE M DEB (TANK) 3.4 19:20:10 10° NW 19:32:32 78° SW 19:32:35 78° SW
BREEZE-M DEB (TANK) 3.7 19:22:10 10° NW 19:40:06 84° SW 19:40:25 80° S
Cosmos 2263 Rocket 3.5 19:27:06 10° S 19:29:37 27° S 19:29:37 27° S
Cosmos 1680 Rocket 4.5 19:36:42 10° SSW 19:40:23 44° SW 19:40:23 44° SW
Milstar 3 4.4 19:37:21 10° WSW 19:47:20 64° S 19:51:53 50° ESE
USA 234 3.8 20:05:40 53° WNW 20:05:40 53° WNW 20:10:43 10° NW
